TimeCDT,TemperatureF,Dew PointF,Humidity,Sea Level PressureIn,VisibilityMPH,Wind Direction,Wind SpeedMPH,Gust SpeedMPH,PrecipitationIn,Events,Conditions,WindDirDegrees,DateUTC
12:25 AM,71.6,66.2,83,29.96,10.0,WSW,5.8,-,N/A,,Mostly Cloudy,250,2013-07-27 05:25:00
12:53 AM,70.0,66.0,87,29.96,10.0,WSW,4.6,-,N/A,,Scattered Clouds,250,2013-07-27 05:53:00
1:53 AM,69.1,66.0,90,29.96,10.0,West,3.5,-,N/A,,Clear,260,2013-07-27 06:53:00
2:53 AM,68.0,64.0,87,29.97,10.0,NW,6.9,-,N/A,,Mostly Cloudy,320,2013-07-27 07:53:00
3:53 AM,68.0,61.0,78,29.96,10.0,North,11.5,-,N/A,,Mostly Cloudy,350,2013-07-27 08:53:00
4:49 AM,68.0,59.0,73,29.98,10.0,North,5.8,-,N/A,,Overcast,350,2013-07-27 09:49:00
4:53 AM,66.9,59.0,76,29.97,10.0,North,5.8,-,N/A,,Overcast,350,2013-07-27 09:53:00
5:53 AM,64.0,57.0,78,29.98,10.0,NNW,5.8,-,N/A,,Scattered Clouds,340,2013-07-27 10:53:00
6:53 AM,66.0,57.0,73,29.99,10.0,NNW,4.6,-,N/A,,Clear,330,2013-07-27 11:53:00
7:53 AM,68.0,55.9,65,29.99,10.0,NNW,9.2,-,N/A,,Clear,340,2013-07-27 12:53:00
8:53 AM,71.1,57.0,61,29.99,10.0,NNW,8.1,-,N/A,,Clear,340,2013-07-27 13:53:00
9:53 AM,73.0,55.9,55,29.99,10.0,NNW,9.2,-,N/A,,Partly Cloudy,340,2013-07-27 14:53:00
10:53 AM,73.9,55.0,52,30.00,10.0,NW,13.8,19.6,N/A,,Scattered Clouds,320,2013-07-27 15:53:00
11:53 AM,75.0,54.0,48,29.99,10.0,NW,11.5,-,N/A,,Scattered Clouds,320,2013-07-27 16:53:00
12:53 PM,78.1,48.9,36,29.98,10.0,NW,16.1,-,N/A,,Clear,310,2013-07-27 17:53:00
1:53 PM,78.1,48.9,36,29.98,10.0,NW,17.3,20.7,N/A,,Scattered Clouds,310,2013-07-27 18:53:00
2:53 PM,77.0,48.0,36,29.96,10.0,WNW,11.5,27.6,N/A,,Partly Cloudy,300,2013-07-27 19:53:00
3:53 PM,77.0,48.9,37,29.96,10.0,North,13.8,-,N/A,,Mostly Cloudy,360,2013-07-27 20:53:00
4:53 PM,77.0,48.9,37,29.96,10.0,WNW,8.1,18.4,N/A,,Partly Cloudy,300,2013-07-27 21:53:00
5:53 PM,73.9,48.9,41,29.96,10.0,NW,12.7,-,N/A,,Scattered Clouds,320,2013-07-27 22:53:00
6:53 PM,73.9,48.0,40,29.96,10.0,NNW,10.4,-,N/A,,Clear,330,2013-07-27 23:53:00
7:53 PM,71.1,48.0,44,29.97,10.0,NNW,5.8,-,N/A,,Clear,340,2013-07-28 00:53:00
8:53 PM,66.0,48.9,54,29.98,10.0,North,6.9,-,N/A,,Clear,360,2013-07-28 01:53:00
9:53 PM,62.1,48.9,62,29.99,10.0,Calm,Calm,-,N/A,,Clear,0,2013-07-28 02:53:00
10:53 PM,59.0,51.1,75,30.00,10.0,Calm,Calm,-,N/A,,Clear,0,2013-07-28 03:53:00
11:53 PM,57.0,52.0,83,30.00,10.0,Calm,Calm,-,N/A,,Clear,0,2013-07-28 04:53:00